Weather History for PASA - October, 2012

Change the Weather History Date:

Wednesday, October 24, 2012

  Actual Average Record
Temperature  
Mean Temperature 37 °F -  
Max Temperature 44 °F 30 °F 44 °F (2012)
Min Temperature 30 °F 26 °F 19 °F (2008)
Degree Days  
Heating Degree Days 28    
Moisture  
Dew Point 27 °F    
Average Humidity 76    
Maximum Humidity 93    
Minimum Humidity 34    
Precipitation  
Precipitation 0.00 in - - ()
Sea Level Pressure  
Sea Level Pressure 30.61 in    
Wind  
Wind Speed 14 mph (SE)    
Max Wind Speed 22 mph    
Max Gust Speed 26 mph    
Visibility 10 miles    
Events      
Averages and records for this station are not official NWS values.
T = Trace of Precipitation, MM = Missing Value Source: NWS Daily Summary

Daily Weather History Graph

Daily Weather History Graph

Search for Another Location

Airport or City:

Trip Planner

Search our weather history database for the weather conditions in past years. The results will help you decide how hot, cold, wet, or windy it might be!

Date:

Astronomy

Oct. 24, 2012 Rise Set
Actual Time 10:40 AM AKDT 7:30 PM AKDT
Civil Twilight 9:50 AM AKDT 8:20 PM AKDT
Nautical Twilight 8:55 AM AKDT 9:15 PM AKDT
Astronomical Twilight 8:00 AM AKDT 10:09 PM AKDT
Moon 6:10 PM AKDT (10/24) 4:19 AM AKDT (10/24)
Length of Visible Light 10h 30m
Length of Day
8h 50m
Waxing Gibbous, 77% of the Moon is Illuminated
Oct 24
Waxing Gibbous
Oct 29
Full
Nov 6
Last Quarter
Nov 13
New
Nov 20
First Quarter

Hourly Weather History & Observations

Time (AKDT) Temp. Windchill Dew Point Humidity Pressure Visibility Wind Dir Wind Speed Gust Speed Precip Events Conditions
12:16 AM 30.2 °F 17.8 °F 26.6 °F 86% 30.62 in 10.0 mi East 19.6 mph - N/A   Clear
12:36 AM 30.2 °F 18.9 °F 28.4 °F 93% 30.63 in 10.0 mi East 16.1 mph 24.2 mph N/A   Clear
12:56 AM 30.2 °F 17.4 °F 28.4 °F 93% 30.62 in 10.0 mi East 20.7 mph - N/A   Partly Cloudy
1:16 AM 32.0 °F 19.8 °F 28.4 °F 87% 30.63 in 10.0 mi East 20.7 mph - N/A   Partly Cloudy
1:36 AM 30.2 °F 17.4 °F 28.4 °F 93% 30.62 in 10.0 mi East 20.7 mph - N/A   Clear
1:56 AM 30.2 °F 17.1 °F 28.4 °F 93% 30.64 in 10.0 mi East 21.9 mph - N/A   Clear
2:16 AM 32.0 °F 19.5 °F 28.4 °F 87% 30.64 in 10.0 mi East 21.9 mph - N/A   Scattered Clouds
2:36 AM 30.2 °F 17.8 °F 28.4 °F 93% 30.64 in 10.0 mi East 19.6 mph - N/A   Overcast
2:56 AM 30.2 °F 18.5 °F 28.4 °F 93% 30.63 in 10.0 mi East 17.3 mph - N/A   Overcast
3:16 AM 32.0 °F 19.8 °F 28.4 °F 87% 30.63 in 10.0 mi East 20.7 mph - N/A   Scattered Clouds
3:36 AM 33.8 °F 21.9 °F 28.4 °F 81% 30.62 in 10.0 mi East 21.9 mph - N/A   Clear
3:56 AM 30.2 °F 17.1 °F 28.4 °F 93% 30.62 in 10.0 mi East 21.9 mph 26.5 mph N/A   Clear
4:16 AM 32.0 °F 19.8 °F 28.4 °F 87% 30.62 in 10.0 mi East 20.7 mph - N/A   Clear
4:36 AM 33.8 °F 22.2 °F 28.4 °F 81% 30.62 in 10.0 mi East 20.7 mph - N/A   Clear
4:56 AM 33.8 °F 21.9 °F 28.4 °F 81% 30.61 in 10.0 mi East 21.9 mph - N/A   Clear
5:16 AM 32.0 °F 20.1 °F 28.4 °F 87% 30.62 in 10.0 mi East 19.6 mph 26.5 mph N/A   Clear
5:36 AM 32.0 °F 20.5 °F 28.4 °F 87% 30.63 in 10.0 mi East 18.4 mph 23.0 mph N/A   Clear
5:56 AM 33.8 °F 23.9 °F 28.4 °F 81% 30.63 in 10.0 mi East 15.0 mph - N/A   Clear
6:16 AM 30.2 °F 18.9 °F 28.4 °F 93% 30.64 in 10.0 mi East 16.1 mph - N/A   Clear
6:36 AM 33.8 °F 22.5 °F 28.4 °F 81% 30.62 in 10.0 mi East 19.6 mph - N/A   Clear
6:56 AM 32.0 °F 20.5 °F 28.4 °F 87% 30.62 in 10.0 mi East 18.4 mph - N/A   Clear
7:16 AM 33.8 °F 23.2 °F 28.4 °F 81% 30.63 in 10.0 mi East 17.3 mph - N/A   Clear
7:36 AM 33.8 °F 23.9 °F 28.4 °F 81% 30.63 in 10.0 mi East 15.0 mph - N/A   Clear
7:56 AM 33.8 °F 24.3 °F 28.4 °F 81% 30.62 in 10.0 mi East 13.8 mph - N/A   Clear
8:16 AM 32.0 °F 23.0 °F 28.4 °F 87% 30.61 in 10.0 mi SE 11.5 mph - N/A   Clear
8:36 AM 33.8 °F 28.6 °F 28.4 °F 81% 30.62 in 10.0 mi East 5.8 mph - N/A   Clear
8:56 AM 33.8 °F - 28.4 °F 81% 30.61 in 10.0 mi Calm Calm - N/A   Clear
9:16 AM 30.2 °F 25.4 °F 26.6 °F 86% 30.61 in 10.0 mi SSE 4.6 mph - N/A   Clear
9:36 AM 33.8 °F 29.6 °F 26.6 °F 75% 30.60 in 10.0 mi East 4.6 mph - N/A   Clear
9:56 AM 33.8 °F - 26.6 °F 75% 30.60 in 10.0 mi Calm Calm - N/A   Clear
10:16 AM 30.2 °F 25.4 °F 24.8 °F 80% 30.59 in 10.0 mi South 4.6 mph - N/A   Clear
10:36 AM 33.8 °F 28.6 °F 24.8 °F 70% 30.60 in 10.0 mi WSW 5.8 mph - N/A   Clear
10:56 AM 33.8 °F 30.8 °F 24.8 °F 70% 30.61 in 10.0 mi North 3.5 mph - N/A   Clear
11:16 AM 33.8 °F - 24.8 °F 70% 30.61 in 10.0 mi Calm Calm - N/A   Clear
11:36 AM 32.0 °F 26.4 °F 26.6 °F 80% 30.60 in 10.0 mi South 5.8 mph - N/A   Clear
11:56 AM 37.4 °F 32.1 °F 21.2 °F 52% 30.58 in 10.0 mi ESE 6.9 mph 18.4 mph N/A   Clear
12:16 PM 41.0 °F 36.4 °F 21.2 °F 45% 30.58 in 10.0 mi SE 6.9 mph 20.7 mph N/A   Clear
12:36 PM 42.8 °F 35.4 °F 21.2 °F 42% 30.58 in 10.0 mi South 15.0 mph 20.7 mph N/A   Clear
12:56 PM 44.6 °F 38.1 °F 17.6 °F 34% 30.59 in 10.0 mi South 13.8 mph 19.6 mph N/A   Clear
1:16 PM 42.8 °F 40.1 °F 21.2 °F 42% 30.60 in 10.0 mi WSW 4.6 mph - N/A   Clear
1:36 PM 39.2 °F 32.5 °F 24.8 °F 56% 30.61 in 10.0 mi SSW 10.4 mph - N/A   Clear
1:56 PM 37.4 °F 31.4 °F 24.8 °F 60% 30.60 in 10.0 mi WSW 8.1 mph - N/A   Clear
2:16 PM 37.4 °F 32.1 °F 28.4 °F 70% 30.60 in 10.0 mi West 6.9 mph - N/A   Clear
2:36 PM 35.6 °F 29.2 °F 28.4 °F 75% 30.60 in 10.0 mi SW 8.1 mph - N/A   Clear
2:56 PM 35.6 °F 30.7 °F 28.4 °F 75% 30.62 in 10.0 mi West 5.8 mph - N/A   Clear
3:16 PM 37.4 °F 30.8 °F 28.4 °F 70% 30.62 in 10.0 mi WSW 9.2 mph - N/A   Clear
3:36 PM 37.4 °F 31.4 °F 28.4 °F 70% 30.62 in 10.0 mi WSW 8.1 mph - N/A   Clear
3:56 PM 37.4 °F 32.1 °F 28.4 °F 70% 30.64 in 10.0 mi West 6.9 mph - N/A   Clear
4:16 PM 37.4 °F 31.4 °F 26.6 °F 65% 30.64 in 10.0 mi West 8.1 mph - N/A   Clear
4:36 PM 35.6 °F 29.9 °F 26.6 °F 70% 30.64 in 10.0 mi WSW 6.9 mph - N/A   Clear
4:56 PM 37.4 °F 32.8 °F 26.6 °F 65% 30.62 in 10.0 mi SSW 5.8 mph - N/A   Clear
5:16 PM 37.4 °F 34.9 °F 26.6 °F 65% 30.61 in 10.0 mi SSW 3.5 mph - N/A   Clear
5:36 PM 35.6 °F 32.8 °F 26.6 °F 70% 30.61 in 10.0 mi SSW 3.5 mph - N/A   Clear
5:56 PM 37.4 °F 32.8 °F 24.8 °F 60% 30.61 in 10.0 mi WSW 5.8 mph - N/A   Clear
6:16 PM 37.4 °F - 26.6 °F 65% 30.61 in 10.0 mi Calm Calm - N/A   Clear
6:36 PM 35.6 °F - 28.4 °F 75% 30.60 in 10.0 mi Calm Calm - N/A   Clear
6:56 PM 35.6 °F - 28.4 °F 75% 30.60 in 10.0 mi Calm Calm - N/A   Clear
7:16 PM 33.8 °F 29.6 °F 26.6 °F 75% 30.59 in 10.0 mi West 4.6 mph - N/A   Clear
7:36 PM 33.8 °F - 26.6 °F 75% 30.58 in 10.0 mi Calm Calm - N/A   Clear
7:56 PM 33.8 °F - 26.6 °F 75% 30.58 in 10.0 mi Calm Calm - N/A   Clear
11:16 PM 33.8 °F - 28.4 °F 81% 30.58 in 10.0 mi Calm Calm - N/A   Clear
11:36 PM 30.2 °F - 28.4 °F 93% 30.58 in 10.0 mi Calm Calm - N/A   Clear
11:56 PM 33.8 °F - 26.6 °F 75% 30.58 in 10.0 mi Calm Calm - N/A   Clear